Location: The D'Auria's Ocala Star Observatory
(29.0276°N, 82.1742°W)
Time: 04:47:51
(UTC-04:00)

Okean 3 Rocket - Visible Passes

Search period start: 18 April 2015 00:00
Search period end: 28 April 2015 00:00
Orbit: 617 x 645 km, 82.5° (Epoch: 16 April)

Date Brightness Start Highest point End Pass type
(mag) Time Alt. Az. Time Alt. Az. Time Alt. Az.
18 Apr 5.9 04:35:56 17° NNW 04:35:56 17° NNW 04:37:02 10° N visible
19 Apr 6.1 04:57:05 11° NNW 04:57:05 11° NNW 04:57:18 10° NNW visible
20 Apr 6.6 03:40:49 13° NNE 03:40:49 13° NNE 03:41:18 10° NNE visible
21 Apr 6.3 04:01:56 13° N 04:01:56 13° N 04:02:26 10° N visible
22 Apr 6.4 04:23:02 10° NNW 04:23:02 10° NNW 04:23:02 10° NNW visible
